ISS 1 25544U 98067A 04018.29896991 .00023601 00000-0 23076-3 0 338 2 25544 51.6306 13.6411 0007965 63.6790 132.3068 15.65998622294648 ---- Via the sarex mailing list at AMSAT.ORG courtesy of AMSAT-NA. To unsubscribe, send "unsubscribe sarex" to Majordomo@amsat.org